Regional Weather Roundup
Issued by NWS

Home | Current Version | Previous Version | Text Only | Print | Product List | Glossary On
Versions: 1 2 3 4 5 6 7 8 9 10 11 12 13 14 15 16 17 18 19 20 21 22 23 24 25 26 27 28 29 30 31 32 33 34 35 36 37 38 39 40 41 42 43 44 45 46 47 48 49 50
000
ASUS44 KMEG 010410
RWRTN
TENNESSEE HOURLY STATE WEATHER ROUNDUP
NATIONAL WEATHER SERVICE MEMPHIS TN
1100 PM CDT WED AUG 31 2016

TNZ002-004-019-021-049-052-054-088>092-010500-
WEST TENNESSEE

CITY           SKY/WX    TMP DP  RH WIND       PRES   REMARKS
MEMPHIS INTL   PTCLDY    85  71  63 NE9       29.96S HX  90
NWS MEMPHIS      N/A     82 N/A N/A MISG        N/A
JACKSON        CLEAR     75  73  93 CALM      29.97R
DYERSBURG      CLEAR     79  70  73 MISG      29.98R
UNION CITY     CLEAR     73  73 100 N5        29.97S
PARIS          CLEAR     73  70  88 N3        29.98S
HUNTINGDON     CLEAR     77  73  88 CALM      29.96S
LEXINGTON      CLEAR     75  73  94 CALM      29.96S
$$

TNZ008-025-027-028-033-062-065-066-010500-
NORTH MIDDLE TENNESSEE

CITY           SKY/WX    TMP DP  RH WIND       PRES   REMARKS
NASHVILLE      CLEAR     80  72  76 NE3       29.96S
PORTLAND       CLEAR     75  73  94 CALM      29.97S
CLARKSVILLE    CLEAR     76  71  85 N8        29.97R
COOKEVILLE     CLEAR     73  72  94 CALM      29.97S
GALLATIN       CLEAR     77  73  88 CALM      29.98S
CROSSVILLE     CLEAR     69  69 100 CALM      30.02F FOG
$$

TNZ061-075-076-078-094-096-097-010500-
SOUTH MIDDLE TENNESSEE

CITY           SKY/WX    TMP DP  RH WIND       PRES   REMARKS
FAYETTEVILLE   CLOUDY    77  72  83 N7        29.96S
TULLAHOMA      CLEAR     75  70  83 CALM      29.99S
WINCHESTER     CLEAR     73  70  88 CALM      29.98S
MCMINNVILLE    CLEAR     75  73  94 CALM      29.98S
COLUMBIA       CLEAR    N/A N/A N/A CALM      29.95F
SHELBYVILLE    CLEAR     75  73  94 N6        29.97F
$$

TNZ017-018-042-046-047-010500-
NORTHEAST TENNESSEE

CITY           SKY/WX    TMP DP  RH WIND       PRES   REMARKS
TRI CITIES     PTCLDY    71  68  90 CALM      29.98S
ELIZABETHTON   CLEAR     70  68  94 NE6       29.98F
$$

TNZ012-013-036-069-073-074-010500-
CENTRAL EAST TENNESSEE

CITY           SKY/WX    TMP DP  RH WIND       PRES   REMARKS
KNOXVILLE      PTCLDY    79  69  71 W5        29.94S
OAK RIDGE      MOCLDY    78  70  76 CALM      29.96S
DOWNTOWN KNOXV MOCLDY    75  73  94 CALM      29.95R
GATLINBURG     PTCLDY    75  66  73 CALM      29.95S
MORRISTOWN     PTCLDY    77  68  73 S3        29.96S
JACKSBORO      CLEAR     75  72  88 CALM      30.00S
$$

TNZ083-085-099-010500-
SOUTHEAST TENNESSEE

CITY           SKY/WX    TMP DP  RH WIND       PRES   REMARKS
CHATTANOOGA    CLEAR     79  68  69 CALM      29.95S
$$

SKY/WX REPORTED AS FAIR MEANS FEW OR NO CLOUDS BELOW
12 THOUSAND FEET.





USA.gov is the U.S. government's official web portal to all federal, state and local government web resources and services.